Location: 10033 Water Well
(34.0865°N, 106.8959°W)
Time: 16:47:11
(UTC+00:00)

Cosmos 1953 - Pass Details

Date: 13 January 2026
Orbit: 474 x 489 km, 82.5° (Epoch: 10 February)

Event Time Altitude Azimuth Distance (km) Brightness Sun altitude
Rises 01:08:51 0° 0° (N) 2,577 5.5 -10.4°
Reaches altitude 10° 01:11:02 10° 7° (N) 1,691 4.6 -10.9°
Maximum altitude 01:14:36 46° 81° (E) 671 2.3 -11.6°
Drops below altitude 10° 01:18:09 10° 156° (SSE) 1,678 4.7 -12.3°
Sets 01:20:18 0° 162° (SSE) 2,553 5.7 -12.7°
